Location: Caltech
(34.1382°N, 118.1253°W)
Time: 02:44:18
(UTC-07:00)

SL-16 R/B - Visible Passes

Search period start: 26 April 2015 00:00
Search period end: 06 May 2015 00:00
Orbit: 843 x 846 km, 71.0° (Epoch: 25 April)

Date Brightness Start Highest point End Pass type
(mag) Time Alt. Az. Time Alt. Az. Time Alt. Az.
26 Apr 4.6 01:56:30 15° ENE 01:56:30 15° ENE 01:58:03 10° NE visible
26 Apr 2.9 03:38:22 42° NW 03:38:22 42° NW 03:43:06 10° N visible
27 Apr 4.7 01:42:41 14° ENE 01:42:41 14° ENE 01:43:46 10° NE visible
27 Apr 3.0 03:24:34 41° NNW 03:24:34 41° NNW 03:28:56 10° N visible
28 Apr 4.8 01:28:51 12° ENE 01:28:51 12° ENE 01:29:27 10° ENE visible
28 Apr 3.1 03:10:42 39° NNW 03:10:42 39° NNW 03:14:45 10° N visible
29 Apr 4.9 01:14:57 11° ENE 01:14:57 11° ENE 01:15:09 10° ENE visible
29 Apr 3.3 02:56:49 37° NNW 02:56:49 37° NNW 03:00:34 10° N visible
30 Apr 3.4 02:42:54 35° N 02:42:54 35° N 02:46:23 10° N visible
01 May 3.6 02:28:57 33° N 02:28:57 33° N 02:32:12 10° NNE visible
02 May 3.7 02:14:57 31° N 02:14:57 31° N 02:18:01 10° NNE visible
03 May 3.8 02:00:56 30° N 02:00:56 30° N 02:03:49 10° NNE visible
04 May 3.9 01:46:53 29° N 01:46:53 29° N 01:49:38 10° NNE visible
05 May 4.0 01:32:48 28° N 01:32:48 28° N 01:35:26 10° NNE visible
